| time (UTC) | temp C | wind direction | speed KPH | gust KPH | rain 1hr cm | rain 24hr cm | rain mn cm | humidity % | barometer mb |
| 20260504181702 | 17 | 289 | 11.3 | 29.0 | 0.00 | 0.00 | 0.00 | 29 | 1009.0 |
| 20260504180226 | 18 | 258 | 8.0 | 22.5 | 0.00 | 0.00 | 0.00 | 28 | 1008.9 |
| 20260504174710 | 18 | 239 | 6.4 | 27.4 | 0.00 | 0.00 | 0.00 | 28 | 1008.8 |
| 20260504173208 | 18 | 192 | 16.1 | 27.4 | 0.00 | 0.00 | 0.00 | 26 | 1009.1 |
| 20260504171731 | 18 | 272 | 6.4 | 29.0 | 0.00 | 0.00 | 0.00 | 28 | 1009.1 |
| 20260504170217 | 17 | 253 | 12.9 | 22.5 | 0.00 | 0.00 | 0.00 | 26 | 1008.8 |
| 20260504160245 | 16 | 239 | 11.3 | 22.5 | 0.00 | 0.00 | 0.00 | 31 | 1008.5 |
| 20260504150220 | 14 | 230 | 6.4 | 20.9 | 0.00 | 0.00 | 0.00 | 37 | 1009.2 |
| 20260504140210 | 12 | 243 | 9.7 | 19.3 | 0.00 | 0.00 | 0.00 | 39 | 1009.4 |
| 20260504130202 | 10 | 239 | 6.4 | 11.3 | 0.00 | 0.00 | 0.00 | 47 | 1009.9 |
| 20260504120204 | 8 | 185 | 4.8 | 16.1 | 0.00 | 0.00 | 0.00 | 52 | 1010.3 |
| 20260504110207 | 7 | 188 | 1.6 | 4.8 | 0.00 | 0.00 | 0.00 | 58 | 1010.3 |
| 20260504100159 | 7 | 188 | 3.2 | 9.7 | 0.00 | 0.00 | 0.00 | 56 | 1010.1 |
| 20260504081721 | 7 | 143 | 1.6 | 4.8 | 0.00 | 0.00 | 0.00 | 62 | 1009.9 |
| 20260504080209 | 6 | 143 | 0.0 | 8.0 | 0.00 | 0.00 | 0.00 | 61 | 1010.0 |
| 20260504070219 | 6 | 227 | 0.0 | 3.2 | 0.00 | 0.00 | 0.00 | 58 | 1010.0 |
| 20260504060214 | 6 | 267 | 0.0 | 3.2 | 0.00 | 0.00 | 0.00 | 53 | 1010.0 |
| 20260504050218 | 6 | 267 | 1.6 | 4.8 | 0.00 | 0.00 | 0.00 | 44 | 1010.4 |
| 20260504044726 | 5 | 291 | 0.0 | 1.6 | 0.00 | 0.00 | 0.00 | 55 | 1010.4 |
| 20260504043228 | 5 | 291 | 0.0 | 3.2 | 0.00 | 0.00 | 0.00 | 48 | 1010.6 |
| 20260504041704 | 3 | 291 | 0.0 | 0.0 | 0.00 | 0.00 | 0.00 | 56 | 1010.6 |
| 20260504040235 | 2 | 291 | 0.0 | 0.0 | 0.00 | 0.00 | 0.00 | 80 | 1010.6 |
| 20260504034659 | 2 | 291 | 0.0 | 0.0 | 0.00 | 0.00 | 0.00 | 81 | 1010.5 |
| 20260504033219 | 2 | 291 | 0.0 | 0.0 | 0.00 | 0.00 | 0.00 | 80 | 1010.7 |
| 20260504031705 | 2 | 291 | 0.0 | 0.0 | 0.00 | 0.00 | 0.00 | 78 | 1010.6 |
| 20260504030205 | 3 | 291 | 0.0 | 0.0 | 0.00 | 0.00 | 0.00 | 78 | 1010.5 |
| 20260504024714 | 3 | 291 | 0.0 | 0.0 | 0.00 | 0.00 | 0.00 | 74 | 1010.5 |
| 20260504023220 | 3 | 291 | 0.0 | 0.0 | 0.00 | 0.00 | 0.00 | 74 | 1010.7 |
| 20260504021709 | 3 | 291 | 0.0 | 0.0 | 0.00 | 0.00 | 0.00 | 73 | 1010.7 |
| 20260504014737 | 4 | 291 | 0.0 | 0.0 | 0.00 | 0.00 | 0.00 | 62 | 1010.6 |
| 20260504013214 | 4 | 291 | 0.0 | 0.0 | 0.00 | 0.00 | 0.00 | 65 | 1010.4 |
| 20260504011716 | 5 | 291 | 0.0 | 0.0 | 0.00 | 0.00 | 0.00 | 57 | 1010.3 |
| 20260504010213 | 5 | 291 | 0.0 | 0.0 | 0.00 | 0.00 | 0.00 | 53 | 1010.0 |
| 20260504004741 | 6 | 291 | 0.0 | 0.0 | 0.00 | 0.00 | 0.00 | 51 | 1009.8 |
| 20260504003205 | 6 | 291 | 0.0 | 0.0 | 0.00 | 0.00 | 0.00 | 50 | 1009.7 |
| 20260504001728 | 7 | 291 | 0.0 | 0.0 | 0.00 | 0.00 | 0.00 | 48 | 1009.6 |
| 20260504000213 | 7 | 291 | 0.0 | 0.0 | 0.00 | 0.00 | 0.00 | 44 | 1009.5 |
| 20260503234714 | 8 | 291 | 0.0 | 12.9 | 0.00 | 0.00 | 0.00 | 41 | 1009.4 |
| 20260503233231 | 8 | 274 | 1.6 | 6.4 | 0.00 | 0.00 | 0.00 | 36 | 1009.2 |
| 20260503231714 | 8 | 325 | 0.0 | 12.9 | 0.00 | 0.00 | 0.00 | 38 | 1009.1 |
| 20260503230158 | 8 | 336 | 6.4 | 17.7 | 0.00 | 0.00 | 0.00 | 38 | 1009.2 |
| 20260503224708 | 8 | 305 | 8.0 | 12.9 | 0.00 | 0.00 | 0.00 | 39 | 1009.1 |
| 20260503223205 | 8 | 350 | 4.8 | 17.7 | 0.00 | 0.00 | 0.00 | 38 | 1009.1 |
| 20260503221708 | 9 | 337 | 4.8 | 19.3 | 0.00 | 0.00 | 0.00 | 36 | 1008.9 |
| 20260503220212 | 8 | 354 | 17.7 | 33.8 | 0.00 | 0.00 | 0.00 | 37 | 1009.1 |
| 20260503214714 | 8 | 332 | 4.8 | 14.5 | 0.00 | 0.00 | 0.00 | 38 | 1008.8 |
| 20260503213210 | 8 | 343 | 6.4 | 25.7 | 0.00 | 0.00 | 0.00 | 38 | 1008.6 |
| 20260503211723 | 8 | 335 | 12.9 | 25.7 | 0.00 | 0.00 | 0.00 | 36 | 1008.5 |
| 20260503210218 | 8 | 356 | 11.3 | 27.4 | 0.00 | 0.00 | 0.00 | 34 | 1008.5 |
| 20260503204708 | 9 | 359 | 16.1 | 25.7 | 0.00 | 0.00 | 0.00 | 34 | 1008.3 |
| 20260503203209 | 8 | 356 | 9.7 | 45.1 | 0.00 | 0.00 | 0.00 | 35 | 1008.5 |
| 20260503201704 | 8 | 274 | 8.0 | 25.7 | 0.00 | 0.00 | 0.00 | 40 | 1008.2 |
| 20260503200226 | 8 | 344 | 9.7 | 29.0 | 0.00 | 0.00 | 0.00 | 33 | 1008.1 |
| 20260503194712 | 8 | 357 | 8.0 | 33.8 | 0.00 | 0.00 | 0.00 | 39 | 1008.1 |
| 20260503193211 | 8 | 354 | 20.9 | 33.8 | 0.00 | 0.00 | 0.00 | 33 | 1008.1 |
| 20260503191658 | 8 | 360 | 12.9 | 35.4 | 0.00 | 0.00 | 0.00 | 37 | 1008.1 |
| 20260503190217 | 8 | 359 | 14.5 | 25.7 | 0.00 | 0.00 | 0.00 | 34 | 1008.1 |
| 20260503184717 | 8 | 354 | 8.0 | 25.7 | 0.00 | 0.00 | 0.00 | 36 | 1007.7 |
| 20260503183158 | 8 | 326 | 16.1 | 27.4 | 0.00 | 0.00 | 0.00 | 32 | 1008.0 |